GW6268 Weather Reports


time (UTC)temp
F
wind
direction
speed
knots
gust
knots
rain 1hr
in
rain 24hr
in
rain mn
in
humidity
%
barometer
mb
20260507112307 51 355 1.7 6.1 0.00 0.00 0.00 79 1018.2
20260507111803 51 37 2.6 6.1 0.00 0.00 0.00 79 1018.3
20260507110803 51 38 4.3 7.8 0.00 0.00 0.00 78 1018.5
20260507110303 51 41 3.5 7.8 0.00 0.00 0.00 77 1018.4
20260507105803 52 37 5.2 10.4 0.00 0.00 0.00 77 1018.3
20260507105306 52 40 6.1 10.4 0.00 0.00 0.00 76 1018.4
20260507104804 52 38 2.6 10.4 0.00 0.00 0.00 77 1018.5
20260507104303 52 69 4.3 8.7 0.00 0.00 0.00 76 1018.4
20260507103306 52 349 5.2 8.7 0.00 0.00 0.00 77 1018.7
20260507102803 52 343 4.3 10.4 0.00 0.00 0.00 76 1018.7
20260507101303 52 37 3.5 6.1 0.00 0.00 0.00 72 1018.5
20260507100803 52 347 1.7 4.3 0.00 0.00 0.00 73 1018.6
20260507100303 52 107 3.5 5.2 0.00 0.00 0.00 71 1018.6
20260507095803 53 67 0.9 4.3 0.00 0.00 0.00 71 1018.5
20260507095305 52 91 3.5 5.2 0.00 0.00 0.00 70 1018.6
20260507094803 53 61 2.6 4.3 0.00 0.00 0.00 71 1018.5
20260507094303 52 97 1.7 4.3 0.00 0.00 0.00 73 1018.5
20260507093804 52 89 2.6 7.0 0.00 0.00 0.00 72 1018.5
20260507093303 52 158 4.3 7.0 0.00 0.00 0.00 71 1018.5
20260507092803 52 106 3.5 5.2 0.00 0.00 0.00 71 1018.5
20260507092306 52 172 2.6 5.2 0.00 0.00 0.00 73 1018.5
20260507091803 52 117 4.3 7.8 0.00 0.00 0.00 72 1018.5
20260507090804 52 134 2.6 6.1 0.00 0.00 0.00 74 1018.6
20260507090303 52 73 5.2 8.7 0.00 0.00 0.00 74 1018.5
20260507084803 51 84 6.1 8.7 0.00 0.00 0.00 73 1018.5
20260507083805 51 89 5.2 8.7 0.00 0.00 0.00 77 1018.4
20260507083303 50 135 2.6 6.1 0.00 0.00 0.00 78 1018.6
20260507081803 49 105 5.2 7.0 0.00 0.00 0.00 78 1018.4
20260507081303 49 96 2.6 5.2 0.00 0.00 0.00 79 1018.5
20260507080803 49 102 2.6 4.3 0.00 0.00 0.00 79 1018.5
20260507080303 49 86 2.6 4.3 0.00 0.00 0.00 78 1018.5
20260507075803 49 98 2.6 5.2 0.00 0.00 0.00 79 1018.5
20260507075306 49 97 2.6 2.6 0.00 0.00 0.00 79 1018.3
20260507074804 49 97 3.5 5.2 0.00 0.00 0.00 78 1018.3
20260507074303 49 96 5.2 7.0 0.00 0.00 0.00 78 1018.3
20260507073803 49 106 4.3 7.0 0.00 0.00 0.00 78 1018.2
20260507073303 49 107 5.2 8.7 0.00 0.00 0.00 78 1018.2
20260507072803 49 114 5.2 7.8 0.00 0.00 0.00 78 1018.2
20260507072306 49 122 5.2 7.0 0.00 0.00 0.00 78 1018.2
20260507071803 49 119 6.1 7.8 0.00 0.00 0.00 78 1018.0
20260507071303 49 138 6.1 8.7 0.00 0.00 0.00 78 1018.0
20260507070804 48 97 7.8 10.4 0.00 0.00 0.00 80 1018.1
20260507070303 48 117 6.1 10.4 0.00 0.00 0.00 81 1018.2
20260507065803 48 112 6.1 8.7 0.00 0.00 0.00 82 1018.1
20260507064803 48 114 6.1 7.0 0.00 0.00 0.00 83 1018.0
20260507064303 47 111 5.2 7.0 0.00 0.00 0.00 83 1018.0
20260507063803 47 112 5.2 6.1 0.00 0.00 0.00 84 1017.9
20260507063304 47 115 5.2 6.1 0.00 0.00 0.00 84 1018.0
20260507062803 47 136 4.3 5.2 0.00 0.00 0.00 84 1017.9
20260507062306 47 114 3.5 4.3 0.00 0.00 0.00 85 1018.0
20260507061804 47 142 2.6 2.6 0.00 0.00 0.00 85 1018.0
20260507061303 47 157 2.6 2.6 0.00 0.00 0.00 86 1018.0
20260507060803 47 152 2.6 2.6 0.00 0.00 0.00 86 1018.0
20260507055803 46 138 1.7 2.6 0.00 0.00 0.00 86 1017.9
20260507055306 46 142 1.7 2.6 0.00 0.00 0.00 86 1017.8
20260507054805 46 143 1.7 2.6 0.00 0.00 0.00 87 1017.7
20260507054303 46 142 1.7 1.7 0.00 0.00 0.00 86 1017.7
20260507052805 46 133 1.7 1.7 0.00 0.03 0.00 86 1017.6
20260507051805 46 136 1.7 2.6 0.00 0.04 0.00 86 1017.6
20260507051303 46 140 1.7 2.6 0.00 0.04 0.00 86 1017.6
20260507050803 46 136 1.7 2.6 0.00 0.04 0.00 87 1017.6
20260507050304 46 128 1.7 2.6 0.00 0.04 0.00 87 1017.6
20260507045803 46 127 2.6 2.6 0.00 0.04 0.00 87 1017.6
20260507045306 45 125 1.7 2.6 0.00 0.04 0.00 87 1017.6
20260507044803 45 124 1.7 2.6 0.00 0.04 0.00 86 1017.5
20260507044304 45 122 1.7 2.6 0.00 0.04 0.00 86 1017.5
20260507043303 45 135 1.7 2.6 0.00 0.04 0.00 87 1017.5
20260507042306 45 136 0.0 0.0 0.00 0.04 0.00 87 1017.4
20260507041803 45 124 0.0 0.0 0.00 0.04 0.00 88 1017.3
20260507041303 46 122 0.0 0.0 0.00 0.04 0.00 87 1017.2
20260507040304 46 123 0.0 0.0 0.00 0.04 0.00 87 1017.2
20260507035804 46 146 0.0 0.0 0.00 0.04 0.00 87 1017.2
20260507034803 46 146 0.0 0.0 0.00 0.04 0.00 87 1017.2
20260507033805 46 139 0.0 0.0 0.00 0.04 0.00 86 1017.1
20260507033303 46 143 0.0 0.0 0.00 0.04 0.00 86 1017.1
20260507032803 46 146 0.0 0.9 0.00 0.04 0.00 86 1017.1
20260507032305 46 146 0.9 1.7 0.00 0.04 0.00 86 1017.1
20260507031804 46 146 1.7 1.7 0.00 0.04 0.00 86 1017.1
20260507031305 46 146 0.9 1.7 0.00 0.04 0.00 86 1017.1
20260507030803 46 147 0.9 1.7 0.00 0.04 0.00 86 1017.1
20260507030303 46 147 1.7 2.6 0.00 0.04 0.00 86 1017.1
20260507025803 46 151 1.7 2.6 0.00 0.04 0.00 86 1017.1
20260507025306 46 147 1.7 2.6 0.00 0.04 0.00 86 1017.1
20260507024803 46 146 1.7 2.6 0.00 0.04 0.00 86 1017.1
20260507024303 46 150 1.7 1.7 0.00 0.04 0.00 86 1017.1
20260507023804 46 136 0.9 1.7 0.00 0.04 0.00 86 1017.1
20260507023304 46 143 0.9 1.7 0.00 0.04 0.00 87 1017.1
20260507022803 46 148 0.9 1.7 0.00 0.04 0.00 86 1017.0
20260507022306 46 118 0.9 0.9 0.00 0.04 0.00 86 1017.0
20260507021804 46 142 0.9 1.7 0.00 0.04 0.00 86 1017.0
20260507021303 46 145 1.7 1.7 0.00 0.04 0.00 86 1017.1
20260507020804 46 127 1.7 2.6 0.00 0.04 0.00 86 1017.0
20260507020303 46 136 1.7 1.7 0.00 0.04 0.00 86 1017.1
20260507015804 46 139 1.7 2.6 0.00 0.04 0.00 86 1017.1
20260507014804 46 119 0.9 1.7 0.00 0.04 0.00 85 1016.9
20260507014303 46 109 1.7 2.6 0.00 0.04 0.00 85 1017.0
20260507013804 46 108 2.6 2.6 0.00 0.04 0.00 85 1017.0
20260507012804 47 107 1.7 2.6 0.00 0.04 0.00 85 1017.0
20260507012306 47 96 1.7 2.6 0.00 0.04 0.00 85 1016.9
20260507011803 47 91 1.7 2.6 0.00 0.04 0.00 85 1017.0
20260507011304 47 82 0.9 2.6 0.00 0.04 0.00 85 1016.9
20260507010803 47 86 1.7 2.6 0.00 0.04 0.00 85 1016.9
20260507005803 47 88 1.7 2.6 0.00 0.04 0.00 85 1016.9
20260507005305 47 85 1.7 2.6 0.00 0.04 0.00 85 1016.9
20260507004304 47 88 0.9 1.7 0.00 0.04 0.00 85 1017.1
20260507003804 47 81 1.7 2.6 0.00 0.04 0.00 85 1017.0
20260507003305 47 72 0.9 2.6 0.00 0.04 0.00 85 1017.1
20260507002804 47 82 0.9 2.6 0.00 0.04 0.00 85 1017.0
20260507002306 47 68 1.7 2.6 0.00 0.04 0.00 85 1017.0
20260507001804 47 88 0.9 2.6 0.00 0.04 0.00 85 1017.0
20260507001304 47 62 1.7 2.6 0.00 0.04 0.00 85 1017.1
20260507000803 47 60 1.7 2.6 0.00 0.04 0.00 84 1017.1
20260507000306 47 44 1.7 4.3 0.00 0.04 0.00 84 1017.1
20260506235802 47 74 1.7 2.6 0.00 0.04 0.00 84 1017.2
20260506235301 47 45 1.7 4.3 0.00 0.04 0.00 84 1017.2
20260506234801 47 326 1.7 2.6 0.00 0.04 0.00 84 1017.0
20260506234302 47 68 1.7 4.3 0.00 0.04 0.00 84 1017.2
20260506233302 47 55 0.9 2.6 0.00 0.04 0.00 84 1017.1
20260506232802 47 77 1.7 2.6 0.00 0.04 0.00 84 1017.1
20260506232301 47 48 1.7 2.6 0.00 0.04 0.00 84 1017.1
20260506231801 47 50 1.7 4.3 0.00 0.04 0.00 84 1017.1
20260506230802 47 47 2.6 5.2 0.00 0.04 0.00 84 1017.0
20260506230301 47 37 2.6 6.1 0.00 0.04 0.00 84 1017.0
20260506225802 47 53 1.7 5.2 0.00 0.04 0.04 84 1017.0
20260506225305 47 60 2.6 5.2 0.00 0.04 0.04 84 1017.1
20260506224301 47 28 1.7 4.3 0.00 0.04 0.04 84 1017.1
20260506223801 47 45 1.7 4.3 0.00 0.04 0.04 84 1017.1
20260506223303 47 63 1.7 6.1 0.00 0.04 0.04 84 1017.1
20260506222802 47 65 2.6 5.2 0.00 0.04 0.04 84 1017.1
20260506222305 47 5 1.7 5.2 0.00 0.04 0.04 84 1017.2
20260506221801 47 338 1.7 7.0 0.00 0.04 0.04 84 1017.0
20260506221301 47 4 1.7 5.2 0.00 0.04 0.04 84 1017.1
20260506220802 47 35 2.6 5.2 0.00 0.04 0.04 84 1017.1
20260506220302 47 17 0.9 2.6 0.00 0.04 0.04 84 1017.1
20260506215802 47 44 1.7 5.2 0.00 0.04 0.04 84 1017.2
20260506215305 47 13 2.6 7.0 0.00 0.04 0.04 84 1017.1
20260506214801 47 57 1.7 4.3 0.00 0.04 0.04 84 1017.1
20260506214302 47 30 1.7 4.3 0.00 0.04 0.04 84 1017.0
20260506213802 47 37 1.7 7.0 0.00 0.04 0.04 84 1016.9
20260506213303 47 19 2.6 7.8 0.00 0.04 0.04 85 1017.0
20260506212801 47 298 0.0 5.2 0.00 0.04 0.04 84 1016.8
20260506211301 47 5 2.6 7.0 0.00 0.04 0.04 85 1016.8
20260506210801 47 41 2.6 6.1 0.00 0.04 0.04 85 1016.7
20260506210302 47 53 0.0 4.3 0.00 0.04 0.04 85 1016.8
20260506205802 47 34 2.6 6.1 0.00 0.04 0.04 85 1016.8
20260506205305 47 17 1.7 7.0 0.00 0.04 0.04 85 1016.7
20260506204802 47 12 2.6 7.8 0.00 0.04 0.04 85 1016.7
20260506204303 47 21 0.9 7.0 0.00 0.04 0.04 85 1016.8
20260506203802 47 30 2.6 6.1 0.00 0.04 0.04 85 1016.8
20260506203301 47 13 2.6 7.0 0.00 0.04 0.04 85 1016.7
20260506202801 47 24 1.7 7.0 0.00 0.04 0.04 85 1016.8
20260506201802 47 32 1.7 5.2 0.00 0.04 0.04 86 1016.7
20260506201302 47 0 1.7 7.8 0.00 0.04 0.04 86 1016.6
20260506200802 47 359 3.5 7.0 0.00 0.04 0.04 86 1016.6
20260506200301 47 31 4.3 10.4 0.00 0.04 0.04 86 1016.6
20260506195802 47 7 4.3 10.4 0.00 0.04 0.04 86 1016.6
20260506195305 47 31 4.3 8.7 0.00 0.04 0.04 86 1016.5
20260506194301 47 5 7.8 13.0 0.00 0.04 0.04 86 1016.5
20260506193302 47 3 7.0 11.3 0.00 0.04 0.04 88 1016.4
20260506192804 47 355 6.1 12.2 0.00 0.04 0.04 88 1016.4
20260506192305 47 8 7.0 12.2 0.00 0.04 0.04 88 1016.4
20260506191802 47 15 5.2 10.4 0.00 0.04 0.04 89 1016.4
20260506191302 47 354 5.2 12.2 0.00 0.04 0.04 89 1016.3
20260506190802 47 8 6.1 10.4 0.00 0.04 0.04 89 1016.4
20260506185302 47 357 4.3 10.4 0.00 0.04 0.04 91 1016.4
20260506184302 47 356 4.3 13.0 0.00 0.04 0.04 91 1016.3
20260506183801 47 5 6.1 13.9 0.00 0.04 0.04 91 1016.2
20260506183302 47 24 7.8 13.9 0.00 0.04 0.04 91 1016.1
20260506182802 47 3 6.1 10.4 0.00 0.04 0.04 92 1016.1
20260506182306 47 6 6.1 11.3 0.00 0.04 0.04 92 1016.0
20260506181802 47 0 6.1 12.2 0.00 0.04 0.04 92 1015.9
20260506180801 47 355 6.1 13.9 0.00 0.04 0.04 92 1015.8
20260506180302 47 357 5.2 12.2 0.00 0.04 0.04 92 1015.8
20260506175305 47 357 6.1 11.3 0.00 0.04 0.04 91 1015.7
20260506174302 47 353 6.1 13.0 0.00 0.04 0.04 91 1015.6
20260506173802 47 8 6.1 13.0 0.00 0.04 0.04 91 1015.6
20260506173302 47 9 6.1 12.2 0.00 0.04 0.04 91 1015.6
20260506172801 47 9 7.0 11.3 0.00 0.04 0.04 91 1015.6
20260506172306 47 4 6.1 10.4 0.00 0.04 0.04 91 1015.5
20260506171801 47 354 6.1 13.0 0.00 0.04 0.04 91 1015.5
20260506170802 47 2 6.1 13.9 0.00 0.04 0.04 91 1015.4
20260506170303 48 12 7.0 13.9 0.00 0.04 0.04 91 1015.4
20260506165802 47 12 7.8 13.0 0.00 0.04 0.04 90 1015.4
20260506165305 47 352 8.7 13.9 0.00 0.04 0.04 91 1015.3
20260506164802 47 351 8.7 15.6 0.00 0.04 0.04 91 1015.3
20260506164302 47 2 9.6 14.8 0.00 0.04 0.04 91 1015.3
20260506163802 47 2 8.7 17.4 0.00 0.04 0.04 91 1015.3
20260506163302 47 4 7.8 15.6 0.00 0.04 0.04 92 1015.4
20260506162804 47 5 6.1 14.8 0.00 0.04 0.04 92 1015.4
20260506161802 47 5 10.4 15.6 0.00 0.04 0.04 91 1015.4
20260506160802 48 19 8.7 15.6 0.00 0.04 0.04 90 1015.3
20260506160302 48 1 10.4 15.6 0.00 0.04 0.04 91 1015.3
20260506155803 48 8 8.7 15.6 0.00 0.04 0.04 90 1015.3
20260506154802 49 5 8.7 14.8 0.00 0.04 0.04 90 1015.4
20260506154304 49 0 10.4 15.6 0.00 0.04 0.04 90 1015.3
20260506153802 49 355 8.7 15.6 0.00 0.04 0.04 90 1015.3
20260506153302 49 12 7.8 17.4 0.00 0.04 0.04 91 1015.3
20260506152802 49 15 8.7 15.6 0.00 0.04 0.04 90 1015.1
20260506152305 49 7 6.1 13.0 0.00 0.04 0.04 90 1015.1
20260506151802 49 14 7.8 14.8 0.00 0.04 0.04 91 1015.1
20260506151301 49 3 7.8 13.0 0.00 0.04 0.04 90 1015.1
20260506150802 49 7 7.8 12.2 0.00 0.04 0.04 90 1015.1
20260506150304 49 339 7.8 14.8 0.00 0.04 0.04 90 1015.1
20260506145804 50 351 7.8 13.9 0.00 0.04 0.04 90 1015.1
20260506144302 50 11 7.0 13.0 0.00 0.04 0.04 89 1015.1
20260506143802 50 0 7.8 13.0 0.00 0.04 0.04 89 1015.0
20260506143303 50 349 7.0 14.8 0.00 0.04 0.04 89 1014.9
20260506142802 50 0 6.1 14.8 0.00 0.04 0.04 89 1015.0
20260506142306 50 335 5.2 12.2 0.00 0.04 0.04 90 1015.1
20260506141302 49 4 7.8 12.2 0.00 0.04 0.04 90 1015.1
20260506140302 49 340 6.1 10.4 0.00 0.04 0.04 90 1015.1
20260506135305 49 349 5.2 10.4 0.00 0.04 0.04 91 1015.2
20260506134803 49 4 7.0 13.9 0.00 0.04 0.04 91 1015.2
20260506134302 49 8 7.0 13.0 0.00 0.04 0.04 91 1015.2
20260506133802 49 347 6.1 13.0 0.00 0.04 0.04 91 1015.0
20260506133302 49 354 7.0 12.2 0.00 0.04 0.04 90 1015.1
20260506132805 49 328 7.0 13.9 0.00 0.04 0.04 89 1015.1
20260506132302 50 341 6.1 12.2 0.00 0.04 0.04 88 1015.2
20260506131802 50 346 5.2 12.2 0.00 0.04 0.04 88 1015.2
20260506130803 50 338 6.1 13.0 0.00 0.04 0.04 87 1015.2
20260506130302 50 356 6.1 13.0 0.00 0.04 0.04 88 1015.1
20260506125802 50 337 7.8 12.2 0.00 0.04 0.04 88 1015.2
20260506125305 50 340 9.6 13.9 0.00 0.04 0.04 87 1015.2
20260506124803 50 341 8.7 12.2 0.00 0.04 0.04 87 1015.0
20260506124302 50 340 7.8 13.9 0.00 0.04 0.04 87 1015.0
20260506123802 50 321 6.1 12.2 0.00 0.04 0.04 87 1015.1
20260506123302 50 345 8.7 13.9 0.00 0.04 0.04 86 1015.2
20260506122804 51 334 7.0 13.9 0.00 0.04 0.04 87 1015.2
20260506122305 51 322 6.1 11.3 0.00 0.04 0.04 86 1015.1
20260506121804 50 334 7.0 13.0 0.00 0.04 0.04 87 1015.1
20260506121302 50 344 6.1 13.0 0.00 0.04 0.04 87 1015.0
20260506120802 50 347 7.0 10.4 0.00 0.04 0.04 87 1014.9
20260506120302 51 333 8.7 12.2 0.00 0.04 0.04 86 1014.9
20260506115804 51 349 6.1 11.3 0.00 0.04 0.04 87 1015.0
20260506115306 50 351 7.8 13.0 0.00 0.04 0.04 86 1015.1
20260506114802 51 343 6.1 13.0 0.00 0.04 0.04 86 1015.1
20260506114302 51 341 6.1 12.2 0.00 0.04 0.04 87 1015.1
20260506113302 51 322 7.0 11.3 0.00 0.04 0.04 86 1015.2
20260506112802 50 348 7.8 15.6 0.00 0.04 0.04 86 1015.2